{"data":{"norad_id":66098,"epoch":"2026-05-25T03:55:57.217152Z","epoch_age_seconds":63955,"freshness":"FRESH","line1":"1 66098U 25236N   26145.16385668  .00025399  00000+0  76026-3 0  9999","line2":"2 66098  53.1605 108.6248 0001321  77.3757 282.7393 15.34402514 34643","mean_motion":15.34402514,"eccentricity":0.0001321,"inclination_deg":53.1605,"raan_deg":108.6248,"arg_perigee_deg":77.3757,"mean_anomaly_deg":282.7393,"bstar":0.00076026,"rev_number":3464,"period_min":93.847604319032,"perigee_km":461.79209407084,"apogee_km":463.59944208817,"semimajor_km":6840.8327680795,"source":"CELESTRAK","updated_at":"2026-05-25T13:38:21.029327Z"}}